Location: Black Swamp Observatory
(41.3920°N, 84.1250°W)
Time: 20:46:59
(UTC-05:00)

ISS - Visible Passes

Search period start: 26 November 2022 00:00
Search period end: 06 December 2022 00:00
Orbit: 411 x 421 km, 51.6° (Epoch: 26 November)

Date Brightness Start Highest point End Pass type
(mag) Time Alt. Az. Time Alt. Az. Time Alt. Az.
26 Nov -1.4 18:53:04 10° NNW 18:54:36 14° N 18:54:36 14° N visible
27 Nov -1.5 18:04:05 10° NW 18:06:02 14° N 18:07:53 10° NNE visible
28 Nov -1.5 18:52:42 10° NNW 18:54:04 15° N 18:54:04 15° N visible
29 Nov -1.6 18:04:00 10° NNW 18:05:56 14° N 18:07:23 12° NNE visible
30 Nov -1.9 18:51:53 10° NW 18:53:37 20° N 18:53:37 20° N visible
01 Dec -2.0 18:03:18 10° NNW 18:05:41 18° NNE 18:07:01 15° NE visible
01 Dec -0.7 19:39:35 10° NW 19:39:55 12° NW 19:39:55 12° NW visible
02 Dec -2.8 18:50:55 10° NW 18:53:25 35° N 18:53:25 35° N visible
03 Dec -2.7 18:02:17 10° NW 18:05:14 28° NNE 18:07:02 17° ENE visible
03 Dec -1.0 19:38:52 10° WNW 19:39:57 18° WNW 19:39:57 18° WNW visible
04 Dec -3.8 18:50:00 10° WNW 18:53:19 79° SW 18:53:46 63° SSE visible
05 Dec -3.8 18:01:13 10° NW 18:04:31 60° NNE 18:07:47 10° ESE visible
05 Dec -0.9 19:38:47 10° W 19:40:48 16° SW 19:40:48 16° SW visible
